FW0880 Weather Reports


time (UTC)temp
C
wind
direction
speed
KPH
gust
KPH
rain 1hr
cm
rain 24hr
cm
rain mn
cm
humidity
%
barometer
mb
20260904092519 27 112 1.6 3.2 0.00 0.00 0.00 84 1008.5
20260904092024 27 112 0.0 1.6 0.00 0.00 0.00 84 1008.6
20260904091523 27 112 0.0 3.2 0.00 0.00 0.00 84 1008.7
20260904091007 27 112 0.0 3.2 0.00 0.00 0.00 84 1008.8
20260904090507 27 112 0.0 3.2 0.00 0.00 0.00 84 1008.8
20260904090016 27 112 1.6 3.2 0.00 0.00 0.00 84 1008.9
20260904085517 27 112 0.0 1.6 0.00 0.00 0.00 84 1008.9
20260904085019 27 112 0.0 1.6 0.00 0.00 0.00 84 1008.9
20260904084520 27 112 0.0 1.6 0.00 0.00 0.00 84 1008.9
20260904084018 27 112 0.0 1.6 0.00 0.00 0.00 84 1009.0
20260904083521 27 112 0.0 1.6 0.00 0.00 0.00 84 1008.9
20260904083006 27 112 0.0 4.8 0.00 0.00 0.00 84 1008.9
20260904082507 27 112 0.0 4.8 0.00 0.00 0.00 84 1008.9
20260904082111 27 112 1.6 3.2 0.00 0.00 0.00 84 1008.9
20260904081511 27 112 0.0 0.0 0.00 0.00 0.00 84 1008.8
20260904081016 27 112 0.0 1.6 0.00 0.00 0.00 84 1008.9
20260904080517 27 112 0.0 1.6 0.00 0.00 0.00 84 1008.9
20260904080018 27 112 0.0 4.8 0.00 0.00 0.00 84 1008.9
20260904075518 27 112 0.0 4.8 0.00 0.00 0.00 84 1008.9
20260904075024 27 103 0.0 4.8 0.00 0.00 0.00 84 1009.0
20260904074522 27 103 1.6 4.8 0.00 0.00 0.00 84 1009.0
20260904074007 27 84 0.0 0.0 0.00 0.00 0.00 84 1009.0
20260904073508 27 84 0.0 1.6 0.00 0.00 0.00 84 1009.0
20260904073013 27 84 0.0 1.6 0.00 0.00 0.00 84 1009.0
20260904072512 27 84 0.0 1.6 0.00 0.00 0.00 84 1009.1
20260904072019 27 84 0.0 3.2 0.00 0.00 0.00 84 1009.1
20260904071519 27 84 0.0 3.2 0.00 0.00 0.00 84 1009.2
20260904071025 27 84 0.0 3.2 0.00 0.00 0.00 84 1009.2
20260904070524 27 84 0.0 3.2 0.00 0.00 0.00 84 1009.2
20260904070027 27 84 0.0 3.2 0.00 0.00 0.00 84 1009.4
20260904065508 27 84 0.0 3.2 0.00 0.00 0.00 84 1009.4
20260904065018 27 84 0.0 1.6 0.00 0.00 0.00 84 1009.3
20260904064517 27 84 0.0 1.6 0.00 0.00 0.00 84 1009.3
20260904064017 27 84 0.0 3.2 0.00 0.00 0.00 85 1009.4
20260904063516 27 84 0.0 3.2 0.00 0.00 0.00 85 1009.4
20260904063021 27 84 0.0 1.6 0.00 0.00 0.00 85 1009.4
20260904062519 27 84 0.0 1.6 0.00 0.00 0.00 85 1009.5
20260904062008 27 84 0.0 3.2 0.00 0.00 0.00 85 1009.7
20260904061508 27 84 0.0 3.2 0.00 0.00 0.00 85 1009.7
20260904061015 27 81 0.0 1.6 0.00 0.00 0.00 85 1009.7
20260904060512 27 81 0.0 3.2 0.00 0.00 0.00 85 1009.7
20260904060021 27 81 1.6 3.2 0.00 0.00 0.00 85 1009.7
20260904055519 27 81 0.0 3.2 0.00 0.00 0.00 85 1009.8
20260904055024 27 81 0.0 3.2 0.00 0.00 0.00 85 1009.8
20260904054531 27 81 1.6 4.8 0.00 0.00 0.00 85 1009.9
20260904054009 27 82 0.0 3.2 0.00 0.00 0.00 85 1009.9
20260904053508 27 82 0.0 3.2 0.00 0.00 0.00 85 1009.9
20260904053011 27 84 0.0 1.6 0.00 0.00 0.00 85 1010.0
20260904052511 27 84 0.0 0.0 0.00 0.00 0.00 85 1010.1
20260904052019 27 84 0.0 1.6 0.00 0.00 0.00 85 1010.1
20260904051518 27 84 0.0 1.6 0.00 0.00 0.00 85 1010.2
20260904051020 27 84 0.0 3.2 0.00 0.00 0.00 85 1010.2
20260904050520 27 84 1.6 3.2 0.00 0.00 0.00 85 1010.2
20260904050014 27 79 0.0 3.2 0.00 0.00 0.00 85 1010.2
20260904045506 27 79 0.0 1.6 0.00 0.00 0.00 85 1010.3
20260904045111 27 79 0.0 1.6 0.00 0.00 0.00 85 1010.3
20260904044521 27 79 0.0 3.2 0.00 0.00 0.00 85 1010.5
20260904044019 27 79 0.0 3.2 0.00 0.00 0.00 85 1010.6
20260904043518 27 79 0.0 4.8 0.00 0.00 0.00 85 1010.6
20260904043018 27 61 1.6 6.4 0.00 0.00 0.00 85 1010.5
20260904042517 27 72 1.6 6.4 0.00 0.00 0.00 85 1010.6
20260904042017 27 74 0.0 6.4 0.00 0.00 0.00 84 1010.5
20260904041517 27 95 1.6 4.8 0.00 0.00 0.00 84 1010.6
20260904041023 27 146 0.0 3.2 0.00 0.00 0.00 84 1010.7
20260904040526 27 147 0.0 1.6 0.00 0.00 0.00 83 1010.6
20260904040009 27 147 0.0 3.2 0.00 0.00 0.00 83 1010.7
20260904035512 27 147 0.0 3.2 0.00 0.00 0.00 83 1010.6
20260904035014 27 147 1.6 3.2 0.00 0.00 0.00 82 1010.6
20260904034524 27 157 0.0 3.2 0.00 0.00 0.00 82 1010.6
20260904034019 27 157 0.0 3.2 0.00 0.00 0.00 81 1010.5
20260904033519 27 157 0.0 3.2 0.00 0.00 0.00 81 1010.5
20260904033023 27 157 0.0 8.0 0.00 0.00 0.00 80 1010.5
20260904032522 27 158 1.6 9.7 0.00 0.00 0.00 79 1010.4
20260904032005 27 134 0.0 14.5 0.00 0.00 0.00 79 1010.4
20260904031511 27 165 9.7 14.5 0.00 0.00 0.00 78 1010.5
20260904031014 27 168 4.8 12.9 0.00 0.00 0.00 79 1010.4
20260904030514 28 157 6.4 12.9 0.00 0.00 0.00 80 1010.4
20260904030017 28 143 6.4 12.9 0.00 0.00 0.00 81 1010.4
20260904025517 28 147 1.6 8.0 0.00 0.00 0.00 82 1010.5
20260904025020 28 163 4.8 8.0 0.00 0.00 0.00 83 1010.5
20260904024517 28 143 0.0 6.4 0.00 0.00 0.00 83 1010.3
20260904024018 28 96 0.0 3.2 0.00 0.00 0.00 82 1010.3
20260904023518 28 84 0.0 4.8 0.00 0.00 0.00 82 1010.2
20260904023004 28 40 1.6 9.7 0.00 0.00 0.00 82 1010.0
20260904022504 28 360 1.6 9.7 0.00 0.00 0.00 81 1010.0
20260904022012 28 19 0.0 17.7 0.00 0.00 0.00 81 1009.9
20260904021508 29 327 4.8 17.7 0.00 0.00 0.00 80 1009.8
20260904021011 29 355 3.2 8.0 0.00 0.00 0.00 79 1009.8
20260904020511 29 40 0.0 4.8 0.00 0.00 0.00 79 1009.7
20260904020020 29 40 0.0 4.8 0.00 0.00 0.00 79 1009.4
20260904015522 29 40 1.6 6.4 0.00 0.00 0.00 79 1009.6
20260904015022 29 49 1.6 6.4 0.00 0.00 0.00 80 1009.7
20260904014522 29 80 0.0 4.8 0.00 0.00 0.00 81 1009.4
20260904014026 29 81 0.0 4.8 0.00 0.00 0.00 82 1009.2
20260904013525 29 94 0.0 6.4 0.00 0.00 0.00 82 1009.1
20260904013011 29 94 0.0 6.4 0.00 0.00 0.00 82 1008.9
20260904012511 29 126 0.0 6.4 0.00 0.00 0.00 82 1008.8
20260904012015 29 103 1.6 6.4 0.00 0.00 0.00 83 1008.7
20260904011546 30 76 1.6 6.4 0.00 0.00 0.00 83 1008.8
20260904011016 30 115 0.0 6.4 0.00 0.00 0.00 83 1008.8
20260904010516 30 102 3.2 6.4 0.00 0.00 0.00 82 1008.7
20260904010026 30 115 0.0 3.2 0.00 0.00 0.00 82 1008.6
20260904005525 30 115 0.0 6.4 0.00 0.00 0.00 81 1008.6
20260904005006 30 103 1.6 6.4 0.00 0.00 0.00 80 1008.7
20260904004506 30 144 0.0 8.0 0.00 0.00 0.00 80 1008.7
20260904004009 30 146 1.6 8.0 0.00 0.00 0.00 80 1008.6
20260904003516 29 203 1.6 8.0 0.00 0.00 0.00 80 1008.5
20260904003018 28 207 3.2 8.0 0.00 0.00 0.00 80 1008.4
20260904002519 28 238 1.6 8.0 0.00 0.00 0.00 82 1008.5
20260904002023 28 239 3.2 14.5 0.00 0.00 0.00 82 1008.5
20260904001522 29 264 6.4 17.7 0.00 0.00 0.00 82 1008.6
20260904001006 29 261 6.4 19.3 0.00 0.00 0.00 79 1008.5
20260904000506 30 338 6.4 19.3 0.00 0.00 0.00 76 1008.5
20260904000139 30 323 8.0 25.7 0.00 0.00 0.00 77 1008.4
20260903235514 31 329 11.3 25.7 0.00 0.00 0.00 77 1008.3
20260903235019 31 255 1.6 8.0 0.00 0.00 0.00 76 1008.3
20260903234535 31 96 3.2 6.4 0.00 0.00 0.00 76 1008.2
20260903234023 31 132 1.6 4.8 0.00 0.00 0.00 76 1007.9
20260903233524 31 138 0.0 6.4 0.00 0.00 0.00 76 1007.9
20260903233017 31 126 1.6 9.7 0.00 0.00 0.00 75 1007.9
20260903232507 31 128 1.6 9.7 0.00 0.00 0.00 75 1007.9
20260903232016 31 103 1.6 9.7 0.00 0.00 0.00 75 1007.9
20260903231515 31 154 1.6 9.7 0.00 0.00 0.00 76 1007.9
20260903231116 31 160 3.2 9.7 0.00 0.00 0.00 76 1007.9
20260903230516 32 173 3.2 8.0 0.00 0.00 0.00 76 1007.9
20260903230024 31 223 1.6 8.0 0.00 0.00 0.00 76 1007.9
20260903225519 31 152 4.8 11.3 0.00 0.00 0.00 76 1008.0
20260903225007 32 202 6.4 12.9 0.00 0.00 0.00 75 1007.9
20260903224506 32 175 4.8 12.9 0.00 0.00 0.00 75 1007.9
20260903224011 32 203 3.2 14.5 0.00 0.00 0.00 74 1007.9
20260903223510 32 221 4.8 17.7 0.00 0.00 0.00 74 1007.7
20260903223017 32 178 9.7 17.7 0.00 0.00 0.00 73 1007.7
20260903222514 32 181 4.8 16.1 0.00 0.00 0.00 73 1007.5
20260903222022 32 222 6.4 16.1 0.00 0.00 0.00 72 1007.5
20260903221620 33 243 8.0 16.1 0.00 0.00 0.00 71 1007.6
20260903221005 33 242 4.8 14.5 0.00 0.00 0.00 70 1007.6
20260903220505 32 171 6.4 14.5 0.00 0.00 0.00 70 1007.6
20260903220012 33 239 6.4 14.5 0.00 0.00 0.00 69 1007.7
20260903215510 33 234 8.0 14.5 0.00 0.00 0.00 70 1007.7
20260903215018 32 225 6.4 16.1 0.00 0.00 0.00 71 1007.6
20260903214523 32 234 8.0 16.1 0.00 0.00 0.00 72 1007.6
20260903214021 32 190 9.7 14.5 0.00 0.00 0.00 71 1007.9
20260903213521 32 162 6.4 14.5 0.00 0.00 0.00 72 1008.1
20260903213031 32 231 4.8 14.5 0.00 0.00 0.00 71 1008.0
20260903212523 32 175 4.8 12.9 0.00 0.00 0.00 69 1008.1
20260903212011 33 269 8.0 16.1 0.00 0.00 0.00 68 1008.2
20260903211517 33 225 8.0 16.1 0.00 0.00 0.00 68 1008.3
20260903211016 34 269 8.0 16.1 0.00 0.00 0.00 67 1008.2
20260903210514 34 298 4.8 16.1 0.00 0.00 0.00 66 1008.0
20260903210021 33 180 8.0 16.1 0.00 0.00 0.00 68 1007.9
20260903205522 33 262 6.4 12.9 0.00 0.00 0.00 68 1008.0
20260903205004 33 239 4.8 16.1 0.00 0.00 0.00 69 1008.2
20260903204504 33 199 8.0 19.3 0.00 0.00 0.00 69 1008.4
20260903204013 33 202 8.0 17.7 0.00 0.00 0.00 68 1008.3
20260903203515 33 242 6.4 14.5 0.00 0.00 0.00 69 1008.2
20260903203027 33 286 4.8 12.9 0.00 0.00 0.00 69 1008.3
20260903202518 33 278 4.8 11.3 0.00 0.00 0.00 68 1008.3
20260903202020 33 225 4.8 12.9 0.00 0.00 0.00 68 1008.4
20260903201531 33 269 6.4 12.9 0.00 0.00 0.00 68 1008.5
20260903201024 33 198 3.2 12.9 0.00 0.00 0.00 69 1008.6
20260903200523 33 232 4.8 12.9 0.00 0.00 0.00 68 1008.6
20260903200007 32 217 6.4 16.1 0.00 0.00 0.00 70 1008.6
20260903195508 32 215 8.0 16.1 0.00 0.00 0.00 70 1008.6
20260903195010 32 218 6.4 14.5 0.00 0.00 0.00 69 1008.6
20260903194510 32 194 6.4 14.5 0.00 0.00 0.00 69 1008.8
20260903194020 32 171 8.0 14.5 0.00 0.00 0.00 67 1008.9
20260903193521 33 185 4.8 12.9 0.00 0.00 0.00 67 1008.9
20260903193026 33 184 4.8 12.9 0.00 0.00 0.00 67 1009.1
20260903192520 33 188 4.8 11.3 0.00 0.00 0.00 66 1009.1
20260903192007 33 221 4.8 11.3 0.00 0.00 0.00 65 1009.1
20260903191504 33 335 4.8 12.9 0.00 0.00 0.00 67 1009.2
20260903191013 33 280 6.4 11.3 0.00 0.00 0.00 64 1009.3
20260903190513 33 253 4.8 11.3 0.00 0.00 0.00 65 1009.3
20260903190017 33 263 4.8 11.3 0.00 0.00 0.00 66 1009.4
20260903185518 32 259 6.4 11.3 0.00 0.00 0.00 66 1009.6
20260903185021 32 242 3.2 8.0 0.00 0.00 0.00 67 1009.6
20260903184520 32 259 3.2 11.3 0.00 0.00 0.00 66 1009.6
20260903184012 32 242 4.8 11.3 0.00 0.00 0.00 64 1009.6
20260903183507 32 252 6.4 11.3 0.00 0.00 0.00 67 1009.7
20260903183012 32 250 3.2 8.0 0.00 0.00 0.00 66 1009.7
20260903182511 33 238 3.2 8.0 0.00 0.00 0.00 66 1009.8
20260903182014 32 254 3.2 8.0 0.00 0.00 0.00 66 1009.9
20260903181516 32 279 1.6 8.0 0.00 0.00 0.00 68 1009.9
20260903181022 32 199 1.6 11.3 0.00 0.00 0.00 67 1009.9
20260903180520 32 265 4.8 11.3 0.00 0.00 0.00 67 1009.9
20260903180012 32 179 3.2 11.3 0.00 0.00 0.00 68 1010.0
20260903175503 32 241 3.2 9.7 0.00 0.00 0.00 68 1010.1
20260903175008 32 233 3.2 11.3 0.00 0.00 0.00 68 1010.2
20260903174508 32 235 6.4 11.3 0.00 0.00 0.00 67 1010.3
20260903174011 32 213 4.8 11.3 0.00 0.00 0.00 68 1010.2
20260903173510 32 219 3.2 8.0 0.00 0.00 0.00 69 1010.3
20260903173017 32 242 3.2 9.7 0.00 0.00 0.00 68 1010.3
20260903172518 32 313 3.2 9.7 0.00 0.00 0.00 67 1010.3
20260903172023 33 208 3.2 11.3 0.00 0.00 0.00 67 1010.3
20260903171522 33 248 3.2 11.3 0.00 0.00 0.00 65 1010.3
20260903171006 33 281 3.2 9.7 0.00 0.00 0.00 65 1010.3
20260903170506 33 260 3.2 9.7 0.00 0.00 0.00 65 1010.2
20260903170017 32 267 3.2 9.7 0.00 0.00 0.00 66 1010.2
20260903165615 32 232 4.8 8.0 0.00 0.00 0.00 66 1010.2
20260903165017 33 223 3.2 6.4 0.00 0.00 0.00 65 1010.2
20260903164516 32 227 3.2 12.9 0.00 0.00 0.00 67 1010.2
20260903164020 32 240 1.6 12.9 0.00 0.00 0.00 68 1010.2
20260903163520 32 279 1.6 6.4 0.00 0.00 0.00 69 1010.2
20260903163023 32 275 1.6 6.4 0.00 0.00 0.00 70 1010.0
20260903162522 32 232 1.6 6.4 0.00 0.00 0.00 69 1010.1
20260903162006 32 318 3.2 6.4 0.00 0.00 0.00 70 1010.1
20260903161505 32 355 1.6 6.4 0.00 0.00 0.00 70 1010.1
20260903161013 32 309 0.0 4.8 0.00 0.00 0.00 71 1010.1
20260903160510 32 286 1.6 6.4 0.00 0.00 0.00 71 1010.1
20260903160024 32 321 3.2 6.4 0.00 0.00 0.00 71 1010.0
20260903155519 32 333 1.6 6.4 0.00 0.00 0.00 72 1010.1
20260903155024 32 336 1.6 6.4 0.00 0.00 0.00 71 1010.1
20260903154533 32 16 1.6 4.8 0.00 0.00 0.00 72 1010.0
20260903154009 31 343 0.0 4.8 0.00 0.00 0.00 72 1010.1
20260903153507 31 342 1.6 6.4 0.00 0.00 0.00 72 1010.1
20260903153012 31 340 3.2 6.4 0.00 0.00 0.00 73 1010.1
20260903152511 31 5 1.6 4.8 0.00 0.00 0.00 73 1010.1
20260903152025 31 5 1.6 4.8 0.00 0.00 0.00 74 1010.1
20260903151521 30 343 3.2 6.4 0.00 0.00 0.00 76 1010.0
20260903151020 30 344 1.6 6.4 0.00 0.00 0.00 77 1010.0
20260903150519 30 339 3.2 6.4 0.00 0.00 0.00 77 1010.1
20260903150026 29 348 1.6 6.4 0.00 0.00 0.00 78 1010.1
20260903145521 29 325 1.6 4.8 0.00 0.00 0.00 77 1010.0
20260903145014 28 323 1.6 4.8 0.00 0.00 0.00 79 1010.0
20260903144533 28 281 0.0 3.2 0.00 0.00 0.00 79 1010.1
20260903144013 28 281 0.0 4.8 0.00 0.00 0.00 79 1010.1
20260903143512 28 280 1.6 4.8 0.00 0.00 0.00 80 1010.2
20260903143030 28 280 0.0 3.2 0.00 0.00 0.00 80 1010.2
20260903142516 28 280 0.0 0.0 0.00 0.00 0.00 81 1010.2
20260903142053 28 280 0.0 0.0 0.00 0.00 0.00 81 1010.2
20260903141522 28 280 0.0 0.0 0.00 0.00 0.00 82 1010.1
20260903141009 27 280 0.0 1.6 0.00 0.00 0.00 82 1010.1
20260903140506 27 280 0.0 3.2 0.00 0.00 0.00 82 1010.0
20260903140012 27 280 0.0 3.2 0.00 0.00 0.00 83 1010.0
20260903135510 27 280 1.6 3.2 0.00 0.00 0.00 83 1009.9
20260903135019 27 280 0.0 0.0 0.00 0.00 0.00 84 1009.9
20260903134518 27 280 0.0 3.2 0.00 0.00 0.00 84 1009.8
20260903134019 27 280 0.0 3.2 0.00 0.00 0.00 84 1009.8
20260903133522 27 279 0.0 3.2 0.00 0.00 0.00 85 1009.8
20260903133022 27 355 0.0 3.2 0.00 0.00 0.00 85 1009.7
20260903132520 27 355 0.0 3.2 0.00 0.00 0.00 85 1009.7
20260903132009 27 355 0.0 1.6 0.00 0.00 0.00 85 1009.6
20260903131508 27 355 0.0 3.2 0.00 0.00 0.00 85 1009.7
20260903131013 27 355 0.0 3.2 0.00 0.00 0.00 85 1009.6
20260903130510 27 355 0.0 3.2 0.00 0.00 0.00 85 1009.6
20260903130017 27 355 0.0 3.2 0.00 0.00 0.00 85 1009.7
20260903125516 27 355 0.0 3.2 0.00 0.00 0.00 85 1009.6
20260903125016 27 355 0.0 0.0 0.00 0.00 0.00 84 1009.6
20260903124516 27 355 0.0 0.0 0.00 0.00 0.00 84 1009.5
20260903124022 27 355 0.0 1.6 0.00 0.00 0.00 84 1009.5
20260903123525 27 355 0.0 3.2 0.00 0.00 0.00 84 1009.6
20260903123006 27 355 0.0 4.8 0.00 0.00 0.00 84 1009.6
20260903122507 27 355 1.6 4.8 0.00 0.00 0.00 84 1009.6
20260903122011 27 355 0.0 1.6 0.00 0.00 0.00 84 1009.6
20260903121526 27 355 0.0 3.2 0.00 0.00 0.00 84 1009.6
20260903121017 27 355 0.0 3.2 0.00 0.00 0.00 84 1009.5
20260903120517 27 355 0.0 3.2 0.00 0.00 0.00 84 1009.5
20260903120037 27 355 0.0 4.8 0.00 0.00 0.00 83 1009.4
20260903115523 27 355 1.6 4.8 0.00 0.00 0.00 83 1009.3
20260903115028 27 338 1.6 4.8 0.00 0.00 0.00 83 1009.2
20260903114528 27 335 0.0 4.8 0.00 0.00 0.00 83 1009.1
20260903114007 27 335 1.6 4.8 0.00 0.00 0.00 83 1009.1
20260903113507 27 350 0.0 3.2 0.00 0.00 0.00 83 1009.1
20260903113018 27 351 0.0 3.2 0.00 0.00 0.00 83 1009.0
20260903112510 27 351 0.0 3.2 0.00 0.00 0.00 83 1009.0
20260903112017 27 351 1.6 3.2 0.00 0.00 0.00 83 1008.9
20260903111515 27 351 1.6 4.8 0.00 0.00 0.00 82 1008.9
20260903111019 27 351 1.6 4.8 0.00 0.00 0.00 82 1008.8
20260903110519 27 351 3.2 4.8 0.00 0.00 0.00 82 1008.7
20260903110025 27 341 0.0 0.0 0.00 0.00 0.00 82 1008.7
20260903105524 27 338 0.0 0.0 0.00 0.00 0.00 82 1008.7
20260903105006 27 338 0.0 1.6 0.00 0.00 0.00 82 1008.7
20260903104505 27 338 0.0 3.2 0.00 0.00 0.00 82 1008.7
20260903104009 27 338 0.0 3.2 0.00 0.00 0.00 82 1008.8
20260903103509 27 337 1.6 3.2 0.00 0.00 0.00 82 1008.8
20260903103017 27 337 0.0 3.2 0.00 0.00 0.00 82 1008.8
20260903102516 27 337 1.6 6.4 0.00 0.00 0.00 82 1008.8
20260903102018 27 338 1.6 6.4 0.00 0.00 0.00 82 1008.8
20260903101525 27 5 3.2 4.8 0.00 0.00 0.00 83 1008.9
20260903101018 27 15 0.0 3.2 0.00 0.00 0.00 83 1008.8
20260903100517 27 15 0.0 1.6 0.00 0.00 0.00 83 1008.8
20260903100031 27 15 0.0 0.0 0.00 0.00 0.00 83 1008.9
20260903095521 27 15 0.0 0.0 0.00 0.00 0.00 83 1008.8
20260903095006 27 15 0.0 0.0 0.00 0.00 0.00 83 1008.8
20260903094514 27 15 0.0 0.0 0.00 0.00 0.00 83 1008.8
20260903094008 27 15 0.0 3.2 0.00 0.00 0.00 83 1008.9
20260903093511 27 15 0.0 3.2 0.00 0.00 0.00 83 1009.0
20260903093017 27 15 0.0 3.2 0.00 0.00 0.00 83 1008.9